�N����,����,�~����,�C��,���x,�C��,����,���ϕ���,�ő�u�ԕ���,�ő厞����,���˗�,�I�_���x,�n�����x,�ő啗���N��,DTYPE
"21/05/16","00:10",0.0,20.7,80.3,1009.5,59.9,0.7,2.8,110.8,0.00,17.2,130.0,"00:00:08",1
"21/05/16","00:20",0.2,20.5,81.0,1009.5,74.7,0.5,2.2,104.9,0.00,17.2,130.0,"00:10:02",1
"21/05/16","00:30",0.0,20.4,82.0,1009.7,49.7,0.7,1.8,84.6,0.00,17.3,130.0,"00:27:52",1
"21/05/16","00:40",0.2,20.1,82.7,1009.0,341.3,0.6,1.6,43.7,0.00,17.1,130.0,"00:32:00",1
"21/05/16","00:50",0.0,20.0,83.3,1009.5,316.3,0.6,1.4,325.8,0.00,17.1,130.0,"00:42:08",1
"21/05/16","01:00",0.2,19.8,84.0,1009.0,324.4,0.5,0.9,313.0,0.00,17.1,130.0,"00:52:40",1
"21/05/16","01:10",0.2,19.5,84.5,1009.3,280.5,0.6,1.0,320.8,0.00,16.9,130.0,"01:04:24",1
"21/05/16","01:20",0.2,19.4,84.8,1009.5,312.8,0.3,0.8,302.6,0.00,16.8,130.0,"01:18:40",1
"21/05/16","01:30",0.0,19.4,85.3,1009.5,311.2,0.8,1.3,314.0,0.00,16.9,130.0,"01:21:36",1
"21/05/16","01:40",0.2,19.3,85.7,1009.0,339.0,0.3,0.8,304.8,0.00,16.9,130.0,"01:30:08",1
"21/05/16","01:50",0.2,19.2,86.2,1009.0,11.8,0.2,1.0,131.2,0.00,16.9,130.0,"01:47:20",1
"21/05/16","02:00",0.4,19.2,86.6,1009.0,9.1,0.5,0.9,346.8,0.00,17.0,130.0,"01:56:48",1
"21/05/16","02:10",0.6,19.2,87.1,1009.0,317.8,0.5,1.0,325.4,0.00,17.0,130.0,"02:05:44",1
"21/05/16","02:20",0.4,19.1,87.5,1008.8,67.3,0.1,0.5,25.0,0.00,17.0,130.0,"02:11:36",1
"21/05/16","02:30",0.4,19.1,88.0,1009.0,156.2,0.5,1.8,126.9,0.00,17.1,130.0,"02:24:48",1
"21/05/16","02:40",0.4,19.1,88.6,1009.0,185.9,0.7,1.4,197.6,0.00,17.2,130.0,"02:38:00",1
"21/05/16","02:50",0.2,19.1,89.3,1009.3,202.0,0.6,1.3,215.8,0.00,17.3,130.0,"02:48:32",1
"21/05/16","03:00",0.2,18.9,89.4,1009.5,219.0,0.6,1.3,319.6,0.00,17.2,130.0,"02:50:02",1
"21/05/16","03:10",0.2,18.8,89.7,1009.0,254.7,0.6,1.2,321.3,0.00,17.1,130.0,"03:00:08",1
"21/05/16","03:20",0.2,18.8,89.9,1008.8,274.7,0.7,1.4,323.4,0.00,17.1,130.0,"03:11:28",1
"21/05/16","03:30",0.4,18.9,90.4,1009.0,260.4,0.5,1.0,235.7,0.00,17.3,130.0,"03:21:04",1
"21/05/16","03:40",0.2,18.9,90.6,1009.0,249.6,0.7,1.1,254.0,0.00,17.4,130.0,"03:35:36",1
"21/05/16","03:50",0.2,18.8,90.7,1009.0,243.9,0.7,1.2,262.1,0.00,17.3,130.0,"03:43:44",1
"21/05/16","04:00",0.0,18.9,91.1,1008.6,241.9,0.6,1.1,269.5,0.00,17.5,130.0,"03:55:52",1
"21/05/16","04:10",0.2,18.8,91.3,1009.0,244.8,0.6,1.6,238.7,0.00,17.4,130.0,"04:02:48",1
"21/05/16","04:20",0.2,18.8,91.7,1008.8,239.6,0.6,1.0,238.7,0.00,17.5,130.0,"04:12:56",1
"21/05/16","04:30",0.2,18.7,91.7,1008.6,267.2,0.6,1.1,260.9,0.00,17.4,130.0,"04:20:16",1
"21/05/16","04:40",0.0,18.7,92.0,1008.8,241.8,0.7,1.6,211.9,0.00,17.4,130.0,"04:33:18",1
"21/05/16","04:50",0.0,18.8,92.1,1008.8,289.0,0.6,1.8,293.3,0.00,17.5,130.0,"04:45:24",1
"21/05/16","05:00",0.0,18.9,92.4,1008.8,295.4,1.0,1.6,317.0,0.00,17.7,130.0,"04:52:38",1
"21/05/16","05:10",0.0,18.8,92.5,1009.0,281.8,0.6,0.9,277.4,0.00,17.6,130.0,"05:07:32",1
"21/05/16","05:20",0.0,18.9,92.7,1009.0,304.7,1.0,1.9,335.7,0.00,17.7,130.0,"05:11:52",1
"21/05/16","05:30",0.0,18.8,92.8,1008.8,291.7,1.0,1.7,330.3,0.00,17.7,130.0,"05:21:06",1
"21/05/16","05:40",0.0,18.8,93.0,1008.8,298.3,0.6,1.1,256.2,0.00,17.7,130.0,"05:31:36",1
"21/05/16","05:50",0.0,18.8,93.1,1008.6,274.9,0.3,0.8,252.4,0.00,17.7,130.0,"05:40:08",1
"21/05/16","06:00",0.0,18.8,93.3,1008.8,198.2,0.3,1.0,118.5,0.00,17.7,130.0,"05:52:24",1
"21/05/16","06:10",0.0,18.8,93.4,1009.0,314.2,0.3,0.9,327.1,0.00,17.8,130.0,"06:01:12",1
"21/05/16","06:20",0.0,18.9,93.5,1008.8,290.4,0.6,1.1,314.3,0.00,17.9,130.0,"06:18:16",1
"21/05/16","06:30",0.0,19.0,93.6,1009.0,296.0,1.0,1.8,308.5,0.00,18.0,130.0,"06:23:20",1
"21/05/16","06:40",0.0,19.1,93.8,1008.8,291.0,1.0,1.7,306.9,0.00,18.1,130.0,"06:39:28",1
"21/05/16","06:50",0.0,19.0,93.8,1009.3,305.1,0.7,1.6,317.3,0.00,18.0,130.0,"06:44:40",1
"21/05/16","07:00",0.0,19.0,94.0,1009.3,316.3,0.6,1.2,336.9,0.00,18.1,130.0,"06:58:40",1
"21/05/16","07:10",0.2,19.1,94.0,1009.3,298.1,0.5,0.8,309.2,0.00,18.2,130.0,"07:03:36",1
"21/05/16","07:20",1.0,19.1,94.1,1009.5,250.8,0.3,0.6,238.0,0.00,18.2,130.0,"07:10:08",1
"21/05/16","07:30",1.4,19.1,94.1,1009.3,309.3,0.3,0.8,296.5,0.00,18.2,130.0,"07:22:00",1
"21/05/16","07:40",0.6,19.0,94.2,1009.5,290.4,0.3,1.6,308.7,0.00,18.1,130.0,"07:35:52",1
"21/05/16","07:50",0.2,19.0,94.4,1009.7,149.7,0.5,1.2,125.2,0.01,18.1,130.0,"07:44:54",1
"21/05/16","08:00",0.0,19.1,94.5,1009.7,137.2,0.2,0.9,117.8,0.02,18.2,130.0,"07:51:08",1
"21/05/16","08:10",0.2,19.1,94.5,1009.5,184.1,0.3,0.8,123.7,0.02,18.2,130.0,"08:04:48",1
"21/05/16","08:20",0.0,19.2,94.5,1009.5,289.2,0.5,1.0,294.1,0.01,18.3,130.0,"08:16:32",1
"21/05/16","08:30",0.0,19.2,94.6,1009.3,264.8,0.3,0.6,255.2,0.02,18.4,130.0,"08:23:20",1
"21/05/16","08:40",0.0,19.2,94.7,1009.3,271.0,0.6,1.1,302.8,0.02,18.4,130.0,"08:36:32",1
"21/05/16","08:50",0.0,19.2,94.7,1009.3,293.3,0.6,1.2,290.2,0.02,18.4,130.0,"08:46:40",1
"21/05/16","09:00",0.0,19.6,94.8,1009.3,295.2,0.5,0.9,322.0,0.04,18.8,130.0,"08:51:52",1
"21/05/16","09:10",0.0,19.6,94.8,1009.3,295.3,0.5,0.9,299.3,0.04,18.8,130.0,"09:07:36",1
"21/05/16","09:20",0.0,19.8,94.9,1009.3,325.4,0.3,1.1,297.7,0.06,19.0,130.0,"09:10:40",1
"21/05/16","09:30",0.0,19.8,94.8,1008.8,45.7,0.3,0.9,26.6,0.04,19.0,130.0,"09:25:04",1
"21/05/16","09:40",0.0,19.9,94.9,1008.8,185.5,0.1,0.6,192.9,0.03,19.1,130.0,"09:32:48",1
"21/05/16","09:50",0.0,19.9,94.9,1009.3,41.5,0.2,1.2,117.2,0.03,19.1,130.0,"09:45:12",1
"21/05/16","10:00",0.0,19.8,95.0,1009.0,68.3,0.6,1.3,91.7,0.05,19.0,130.0,"09:57:44",1
"21/05/16","10:10",0.0,19.9,95.1,1009.0,26.5,0.7,1.9,32.5,0.08,19.1,130.0,"10:08:08",1
"21/05/16","10:20",0.0,20.1,95.1,1009.0,354.5,0.6,1.8,357.2,0.07,19.3,130.0,"10:11:20",1
"21/05/16","10:30",0.0,20.4,95.0,1008.8,53.7,0.5,1.6,101.3,0.08,19.6,130.0,"10:22:16",1
"21/05/16","10:40",0.0,20.4,94.9,1008.6,23.1,0.7,1.9,86.4,0.05,19.6,130.0,"10:30:08",1
"21/05/16","10:50",0.0,20.3,94.8,1008.6,34.8,0.5,1.2,41.2,0.05,19.5,130.0,"10:40:56",1
"21/05/16","11:00",0.0,20.2,94.9,1008.8,82.5,0.7,2.1,110.2,0.07,19.4,130.0,"10:54:40",1
"21/05/16","11:10",0.0,19.9,94.7,1009.0,119.9,1.1,3.2,126.0,0.04,19.1,130.0,"11:04:48",1
"21/05/16","11:20",0.4,20.1,94.6,1008.8,331.6,0.5,1.1,320.5,0.02,19.2,130.0,"11:16:48",1
"21/05/16","11:30",0.6,19.8,94.6,1008.8,12.0,0.6,1.2,59.4,0.01,18.9,130.0,"11:25:36",1
"21/05/16","11:40",1.0,19.7,94.6,1008.3,76.1,0.6,1.8,119.1,0.04,18.8,130.0,"11:35:44",1
"21/05/16","11:50",0.2,19.5,94.7,1008.3,83.9,0.6,1.6,29.2,0.04,18.7,130.0,"11:42:24",1
"21/05/16","12:00",0.0,19.5,94.6,1008.3,61.3,0.5,1.1,92.1,0.04,18.7,130.0,"11:50:08",1
"21/05/16","12:10",0.2,19.8,94.6,1008.1,87.9,0.5,2.1,354.7,0.07,18.9,130.0,"12:09:52",1
"21/05/16","12:20",0.2,19.9,94.5,1008.1,72.1,0.6,2.1,9.9,0.08,19.0,130.0,"12:10:08",1
"21/05/16","12:30",0.0,20.0,94.4,1007.6,63.2,0.3,1.8,74.7,0.06,19.1,130.0,"12:23:04",1
"21/05/16","12:40",0.2,20.0,94.3,1007.6,16.9,0.6,2.1,16.3,0.07,19.1,130.0,"12:37:44",1
"21/05/16","12:50",0.0,20.2,94.2,1007.8,29.5,0.3,1.0,44.4,0.05,19.3,130.0,"12:43:44",1
"21/05/16","13:00",0.0,20.1,94.1,1007.8,351.2,0.6,1.1,342.6,0.04,19.2,130.0,"12:58:56",1
"21/05/16","13:10",0.0,20.0,94.0,1007.8,355.3,0.6,1.6,336.3,0.02,19.0,130.0,"13:01:20",1
"21/05/16","13:20",0.0,19.9,93.9,1007.6,339.4,0.6,1.3,334.1,0.01,18.9,130.0,"13:14:00",1
"21/05/16","13:30",0.0,20.0,93.9,1007.6,335.1,1.0,1.7,343.9,0.02,19.0,130.0,"13:24:24",1
"21/05/16","13:40",0.0,20.1,93.9,1007.6,354.8,0.5,1.1,346.4,0.03,19.1,130.0,"13:32:24",1
"21/05/16","13:50",0.0,20.1,93.8,1007.6,9.7,0.5,1.2,61.5,0.04,19.1,130.0,"13:49:52",1
"21/05/16","14:00",0.0,20.2,93.8,1007.4,7.8,0.5,1.3,353.9,0.07,19.2,130.0,"13:56:24",1
"21/05/16","14:10",0.0,20.2,93.6,1006.7,49.4,0.6,1.7,24.6,0.10,19.2,130.0,"14:01:28",1
"21/05/16","14:20",0.0,20.4,93.5,1007.1,31.2,0.6,2.2,29.4,0.09,19.4,130.0,"14:12:00",1
"21/05/16","14:30",0.0,20.4,93.2,1006.7,47.7,0.5,1.4,117.7,0.07,19.3,130.0,"14:26:16",1
"21/05/16","14:40",0.0,20.3,93.2,1006.9,21.0,0.7,1.6,47.4,0.05,19.2,130.0,"14:30:24",1
"21/05/16","14:50",0.0,20.2,93.0,1006.7,4.1,0.6,1.8,343.3,0.04,19.1,130.0,"14:43:44",1
"21/05/16","15:00",0.0,20.4,92.8,1006.2,27.8,0.2,0.9,32.2,0.05,19.2,130.0,"14:54:24",1
"21/05/16","15:10",0.0,20.6,92.5,1006.0,330.2,0.7,1.7,339.3,0.05,19.4,130.0,"15:09:44",1
"21/05/16","15:20",0.0,20.5,92.4,1006.0,322.1,0.7,1.9,356.9,0.04,19.3,130.0,"15:10:16",1
"21/05/16","15:30",0.0,20.6,92.3,1006.2,302.7,0.6,1.0,334.2,0.03,19.3,130.0,"15:20:08",1
"21/05/16","15:40",0.0,20.6,92.0,1006.0,27.7,0.3,1.7,107.1,0.03,19.3,130.0,"15:34:32",1
"21/05/16","15:50",0.0,20.6,91.8,1005.7,340.8,0.5,1.2,333.8,0.03,19.3,130.0,"15:44:08",1
"21/05/16","16:00",0.0,20.7,91.7,1005.5,18.3,0.3,1.0,7.5,0.02,19.3,130.0,"15:58:48",1
"21/05/16","16:10",0.0,20.5,91.5,1005.5,9.7,0.5,1.7,342.5,0.02,19.1,130.0,"16:08:48",1
"21/05/16","16:20",0.0,20.6,91.4,1005.2,331.9,0.2,1.1,338.1,0.02,19.2,130.0,"16:11:20",1
"21/05/16","16:30",0.0,20.8,91.3,1005.5,351.7,0.2,0.6,333.9,0.02,19.4,130.0,"16:25:44",1
"21/05/16","16:40",0.0,20.7,91.2,1005.5,328.1,0.2,1.0,353.4,0.01,19.3,130.0,"16:33:36",1
"21/05/16","16:50",0.0,20.7,91.0,1005.5,19.9,0.5,1.3,108.6,0.02,19.2,130.0,"16:48:00",1
"21/05/16","17:00",0.0,20.7,91.0,1005.5,350.8,0.3,0.9,330.2,0.02,19.2,130.0,"16:58:40",1
"21/05/16","17:10",0.0,20.7,90.9,1005.2,4.2,0.5,0.9,52.4,0.02,19.2,130.0,"17:03:28",1
"21/05/16","17:20",0.0,20.9,90.9,1005.2,340.1,0.1,0.6,357.5,0.02,19.4,130.0,"17:11:12",1
"21/05/16","17:30",0.0,21.0,90.7,1004.5,309.4,0.3,1.0,305.9,0.03,19.5,130.0,"17:23:52",1
"21/05/16","17:40",0.0,21.0,90.6,1005.0,349.8,0.7,1.4,339.2,0.02,19.4,130.0,"17:35:36",1
"21/05/16","17:50",0.0,20.7,90.5,1004.8,5.3,0.8,2.1,49.7,0.00,19.1,130.0,"17:42:56",1
"21/05/16","18:00",0.0,20.8,90.4,1004.8,283.3,0.3,1.6,315.7,0.01,19.2,130.0,"17:51:04",1
"21/05/16","18:10",0.0,20.8,90.3,1005.0,336.4,0.7,1.3,313.7,0.00,19.2,130.0,"18:00:32",1
"21/05/16","18:20",0.0,20.7,90.3,1004.8,286.3,0.3,1.3,310.6,0.00,19.1,130.0,"18:19:52",1
"21/05/16","18:30",0.0,20.8,90.4,1005.0,342.4,0.3,1.3,346.7,0.00,19.2,130.0,"18:29:52",1
"21/05/16","18:40",0.0,20.7,90.4,1004.8,324.2,0.7,1.4,326.2,0.00,19.1,130.0,"18:36:08",1
"21/05/16","18:50",0.0,20.5,90.6,1004.8,315.8,0.5,1.0,300.8,0.00,18.9,130.0,"18:44:40",1
"21/05/16","19:00",0.0,20.4,90.7,1004.8,309.2,0.7,1.1,339.0,0.00,18.9,130.0,"18:50:56",1
"21/05/16","19:10",0.0,20.3,90.8,1004.8,333.5,1.0,1.8,334.3,0.00,18.8,130.0,"19:06:32",1
"21/05/16","19:20",0.0,20.2,91.1,1004.8,329.2,1.1,1.7,338.6,0.00,18.7,130.0,"19:17:12",1
"21/05/16","19:30",0.0,19.9,91.3,1004.5,303.2,1.0,1.6,318.2,0.00,18.5,130.0,"19:27:04",1
"21/05/16","19:40",0.0,19.8,91.5,1004.5,326.0,0.7,1.2,325.3,0.00,18.4,130.0,"19:35:36",1
"21/05/16","19:50",0.0,19.8,91.8,1005.0,315.0,0.8,1.2,342.4,0.00,18.5,130.0,"19:44:32",1
"21/05/16","20:00",0.0,19.7,92.0,1004.8,340.0,1.0,1.6,338.4,0.00,18.4,130.0,"19:55:52",1
"21/05/16","20:10",0.0,19.6,92.2,1005.0,314.2,1.0,1.6,323.9,0.00,18.3,130.0,"20:05:44",1
"21/05/16","20:20",0.0,19.5,92.3,1004.8,314.9,0.8,1.4,306.7,0.00,18.3,130.0,"20:16:48",1
"21/05/16","20:30",0.0,19.4,92.6,1005.0,321.4,0.7,1.4,277.3,0.00,18.2,130.0,"20:28:48",1
"21/05/16","20:40",0.0,19.5,92.8,1004.5,330.2,1.0,1.4,332.4,0.00,18.3,130.0,"20:32:48",1
"21/05/16","20:50",0.0,19.4,92.9,1004.5,304.0,0.7,1.3,315.8,0.00,18.3,130.0,"20:40:02",1
"21/05/16","21:00",0.0,19.5,93.1,1004.1,331.5,1.2,2.0,309.7,0.00,18.4,130.0,"20:55:36",1
"21/05/16","21:10",0.0,19.4,93.2,1004.5,322.3,1.2,1.6,331.6,0.00,18.3,130.0,"21:01:44",1
"21/05/16","21:20",0.0,19.4,93.3,1004.5,327.3,1.0,1.4,333.5,0.00,18.3,130.0,"21:13:44",1
"21/05/16","21:30",0.0,19.5,93.5,1004.5,318.5,1.1,1.6,322.1,0.00,18.5,130.0,"21:26:24",1
"21/05/16","21:40",0.0,19.4,93.6,1004.3,333.3,1.1,2.2,336.1,0.00,18.4,130.0,"21:35:04",1
"21/05/16","21:50",0.0,19.3,93.7,1004.3,307.0,1.0,1.6,316.5,0.00,18.3,130.0,"21:45:52",1
"21/05/16","22:00",0.0,19.3,93.9,1004.1,324.1,1.1,1.3,330.0,0.00,18.3,130.0,"21:58:00",1
"21/05/16","22:10",0.0,19.3,94.0,1004.3,304.5,1.1,1.6,316.7,0.00,18.4,130.0,"22:04:40",1
"21/05/16","22:20",0.0,19.3,94.0,1004.1,313.4,0.7,1.4,320.2,0.00,18.4,130.0,"22:18:32",1
"21/05/16","22:30",0.0,19.3,94.1,1004.1,315.3,0.6,1.3,321.2,0.00,18.4,130.0,"22:29:28",1
"21/05/16","22:40",0.0,19.3,94.2,1003.6,330.5,1.1,1.9,339.2,0.00,18.4,130.0,"22:37:28",1
"21/05/16","22:50",0.0,19.2,94.3,1004.1,314.7,0.8,1.3,325.6,0.00,18.3,130.0,"22:42:08",1
"21/05/16","23:00",0.0,19.2,94.3,1003.8,309.8,0.8,1.1,284.3,0.00,18.3,130.0,"22:53:44",1
"21/05/16","23:10",0.0,19.2,94.4,1003.8,311.3,0.7,1.2,269.7,0.00,18.3,130.0,"23:03:52",1
"21/05/16","23:20",0.0,19.2,94.6,1004.1,310.9,0.8,1.2,312.5,0.00,18.4,130.0,"23:10:02",1
"21/05/16","23:30",0.0,19.1,94.6,1003.8,311.9,1.0,1.7,312.6,0.00,18.3,130.0,"23:22:56",1
"21/05/16","23:40",0.0,19.1,94.7,1003.8,306.7,0.7,1.4,263.3,0.00,18.3,130.0,"23:38:40",1
"21/05/16","23:50",0.0,19.1,94.8,1003.1,320.1,1.0,1.7,335.6,0.00,18.3,130.0,"23:42:00",1
"21/05/16","24:00",0.0,19.1,94.8,1003.4,316.9,1.0,1.4,338.0,0.00,18.3,130.0,"23:53:04",1
